TimeAKST,TemperatureF,Dew PointF,Humidity,Sea Level PressureIn,VisibilityMPH,Wind Direction,Wind SpeedMPH,Gust SpeedMPH,PrecipitationIn,Events,Conditions,WindDirDegrees,DateUTC
12:54 AM,46.0,37.9,73,29.54,10.0,SSE,24.2,34.5,N/A,,Partly Cloudy,160,2013-01-13 09:54:00
1:54 AM,46.9,37.9,71,29.55,10.0,SSE,23.0,28.8,N/A,,Partly Cloudy,160,2013-01-13 10:54:00
2:54 AM,46.0,37.9,73,29.57,10.0,SSE,27.6,38.0,N/A,,Partly Cloudy,160,2013-01-13 11:54:00
3:54 AM,46.0,37.0,71,29.58,10.0,SSE,25.3,38.0,N/A,,Partly Cloudy,160,2013-01-13 12:54:00
4:54 AM,46.0,33.1,61,29.58,10.0,SSE,23.0,31.1,N/A,,Partly Cloudy,160,2013-01-13 13:54:00
5:54 AM,46.0,32.0,58,29.57,10.0,SSE,27.6,36.8,N/A,,Mostly Cloudy,160,2013-01-13 14:54:00
6:54 AM,45.0,32.0,60,29.59,10.0,SSE,20.7,-,N/A,,Mostly Cloudy,160,2013-01-13 15:54:00
7:54 AM,44.1,32.0,63,29.60,10.0,SE,11.5,-,N/A,,Mostly Cloudy,140,2013-01-13 16:54:00
8:54 AM,45.0,32.0,60,29.60,10.0,SSE,18.4,26.5,N/A,,Overcast,160,2013-01-13 17:54:00
9:54 AM,44.1,35.1,71,29.59,10.0,SSE,31.1,41.4,N/A,,Overcast,150,2013-01-13 18:54:00
10:54 AM,42.1,37.9,85,29.61,7.0,SSE,18.4,-,0.01,Rain,Rain,150,2013-01-13 19:54:00
11:54 AM,41.0,39.9,96,29.60,4.0,ESE,4.6,-,0.07,Rain,Rain,120,2013-01-13 20:54:00
12:54 PM,41.0,41.0,100,29.55,6.0,ENE,4.6,-,0.08,Rain,Light Rain,60,2013-01-13 21:54:00
1:54 PM,41.0,39.9,96,29.49,7.0,NE,4.6,-,0.06,Rain,Light Rain,50,2013-01-13 22:54:00
2:54 PM,41.0,39.9,96,29.45,8.0,ENE,5.8,-,0.03,Rain,Light Rain,60,2013-01-13 23:54:00
3:07 PM,41.0,39.2,93,29.44,9.0,ENE,3.5,-,0.00,Rain,Light Rain,60,2013-01-14 00:07:00
3:42 PM,39.2,39.2,100,29.44,6.0,SE,5.8,-,0.03,Rain,Light Rain,140,2013-01-14 00:42:00
3:54 PM,39.9,39.0,97,29.44,6.0,ESE,5.8,-,0.04,Rain,Light Rain,120,2013-01-14 00:54:00
4:05 PM,39.2,39.2,100,29.43,5.0,ESE,3.5,-,0.01,Rain,Light Rain,120,2013-01-14 01:05:00
4:51 PM,39.2,39.2,100,29.43,4.0,ENE,4.6,-,0.02,,Overcast,70,2013-01-14 01:51:00
4:54 PM,39.0,39.0,100,29.42,3.0,ENE,4.6,-,0.02,,Overcast,70,2013-01-14 01:54:00
5:01 PM,39.2,37.4,93,29.41,2.0,ENE,5.8,-,0.01,,Overcast,70,2013-01-14 02:01:00
5:40 PM,39.2,39.2,100,29.39,6.0,East,6.9,-,0.02,,Overcast,80,2013-01-14 02:40:00
5:54 PM,39.0,37.9,96,29.39,10.0,East,6.9,-,0.02,,Overcast,90,2013-01-14 02:54:00
6:54 PM,39.0,37.9,96,29.38,10.0,Calm,Calm,-,N/A,,Overcast,0,2013-01-14 03:54:00
7:54 PM,44.1,39.0,82,29.35,10.0,SSE,19.6,27.6,N/A,,Overcast,150,2013-01-14 04:54:00
8:54 PM,44.1,39.0,82,29.34,10.0,SE,15.0,-,N/A,,Overcast,140,2013-01-14 05:54:00
9:54 PM,45.0,39.9,82,29.31,10.0,SSE,29.9,36.8,N/A,,Scattered Clouds,150,2013-01-14 06:54:00
10:54 PM,45.0,39.0,80,29.29,10.0,SSE,23.0,27.6,N/A,,Mostly Cloudy,150,2013-01-14 07:54:00
11:54 PM,46.0,39.0,76,29.28,10.0,SSE,31.1,41.4,N/A,,Overcast,160,2013-01-14 08:54:00